Weather History for Morganton, NC

Change the Weather History Date:

Wednesday, July 3, 2013

  Actual Average (KHKY) Record (KHKY)
Temperature  
Mean Temperature 72 °F -  
Max Temperature 78 °F 86 °F 99 °F (1953)
Min Temperature 65 °F 66 °F 57 °F (1952)
Cooling Degree Days 6    
Growing Degree Days 22 (Base 50)    
Moisture  
Dew Point 68 °F    
Average Humidity 94    
Maximum Humidity 100    
Minimum Humidity 70    
Precipitation  
Precipitation 0.52 in - - ()
Sea Level Pressure  
Sea Level Pressure 30.24 in    
Wind  
Wind Speed 2 mph (SSE)    
Max Wind Speed 10 mph    
Max Gust Speed 16 mph    
Visibility 8 miles    
Events Rain    
Averages and records for this station are not official NWS values.
T = Trace of Precipitation, MM = Missing Value Source: NWS Daily Summary

Daily Weather History Graph

Daily Weather History Graph

Search for Another Location

Airport:

Trip Planner

Search our weather history database for the weather conditions in past years. The results will help you decide how hot, cold, wet, or windy it might be!

Date:

Astronomy

Jul. 03, 2013 Rise Set
Actual Time 6:14 AM EDT 8:46 PM EDT
Civil Twilight 5:44 AM EDT 9:16 PM EDT
Nautical Twilight 5:07 AM EDT 9:53 PM EDT
Astronomical Twilight 4:26 AM EDT 10:34 PM EDT
Moon 2:48 AM EDT (7/3) 4:58 PM EDT (7/3)
Length of Visible Light 15h 31m
Length of Day
14h 31m
Waning Crescent, 18% of the Moon is Illuminated
Jul 3
Waning Crescent
Jul 8
New
Jul 15
First Quarter
Jul 22
Full
Jul 29
Last Quarter

Hourly Weather History & Observations

Time (EDT) Temp. Dew Point Humidity Pressure Visibility Wind Dir Wind Speed Gust Speed Precip Events Conditions
12:15 AM 68.4 °F 68.0 °F 99% 30.21 in 10.0 mi Calm Calm - N/A   Mostly Cloudy
12:35 AM 67.8 °F 67.5 °F 99% 30.21 in 10.0 mi Calm Calm - N/A   Scattered Clouds
12:55 AM 68.0 °F 67.6 °F 99% 30.21 in 10.0 mi Calm Calm - N/A   Clear
1:15 AM 67.1 °F 66.9 °F 99% 30.21 in 10.0 mi Calm Calm - N/A   Scattered Clouds
1:35 AM 66.7 °F 66.7 °F 100% 30.20 in 7.0 mi Calm Calm - N/A   Mostly Cloudy
1:55 AM 65.8 °F 65.8 °F 100% 30.20 in 7.0 mi Calm Calm - N/A   Scattered Clouds
2:15 AM 66.2 °F 66.2 °F 100% 30.20 in 7.0 mi Calm Calm - N/A   Clear
2:35 AM 65.5 °F 65.5 °F 100% 30.20 in 7.0 mi Calm Calm - N/A   Clear
2:55 AM 65.7 °F 65.7 °F 100% 30.20 in 7.0 mi Calm Calm - N/A   Scattered Clouds
3:15 AM 65.3 °F 65.3 °F 100% 30.20 in 4.0 mi Calm Calm - N/A   Scattered Clouds
3:35 AM 65.3 °F 65.3 °F 100% 30.20 in 7.0 mi Calm Calm - N/A   Scattered Clouds
3:55 AM 65.5 °F 65.5 °F 100% 30.20 in 7.0 mi Calm Calm - N/A   Scattered Clouds
4:15 AM 65.8 °F 65.8 °F 100% 30.20 in 7.0 mi Calm Calm - N/A   Mostly Cloudy
4:35 AM 66.2 °F 66.2 °F 100% 30.20 in 7.0 mi Calm Calm - N/A   Scattered Clouds
4:55 AM 66.2 °F 66.2 °F 100% 30.20 in 4.0 mi Calm Calm - N/A   Mostly Cloudy
5:15 AM 66.0 °F 66.0 °F 100% 30.21 in 2.5 mi Calm Calm - N/A   Overcast
5:35 AM 66.0 °F 66.0 °F 100% 30.21 in 7.0 mi Calm Calm - N/A   Overcast
5:55 AM 66.4 °F 66.4 °F 100% 30.22 in 7.0 mi Calm Calm - N/A   Overcast
6:15 AM 67.1 °F 67.1 °F 100% 30.23 in 7.0 mi Calm Calm - N/A   Overcast
6:35 AM 67.3 °F 67.3 °F 100% 30.23 in 7.0 mi Calm Calm - N/A   Overcast
6:55 AM 67.5 °F 67.5 °F 100% 30.23 in 5.0 mi Calm Calm - N/A   Overcast
7:15 AM 68.0 °F 68.0 °F 100% 30.24 in 5.0 mi Calm Calm - N/A   Overcast
7:35 AM 68.2 °F 68.2 °F 100% 30.25 in 7.0 mi East 3.5 mph - N/A   Overcast
7:55 AM 68.7 °F 68.7 °F 100% 30.26 in 10.0 mi Calm Calm - N/A   Mostly Cloudy
8:15 AM 68.9 °F 68.9 °F 100% 30.26 in 10.0 mi East 3.5 mph - N/A   Mostly Cloudy
8:35 AM 69.6 °F 69.4 °F 99% 30.26 in 10.0 mi East 3.5 mph - N/A   Overcast
8:55 AM 70.0 °F 69.1 °F 97% 30.27 in 10.0 mi Calm Calm - N/A Rain Light Rain
9:15 AM 70.7 °F 69.3 °F 95% 30.27 in 10.0 mi ESE 4.6 mph - N/A   Mostly Cloudy
9:35 AM 70.0 °F 68.9 °F 96% 30.27 in 3.0 mi Calm Calm - 0.06 in Rain Heavy Rain
9:55 AM 69.8 °F 69.3 °F 98% 30.26 in 2.5 mi ESE 4.6 mph - 0.13 in Rain Rain
10:15 AM 69.8 °F 69.3 °F 98% 30.26 in 2.5 mi SE 4.6 mph - 0.02 in Rain Light Rain
10:35 AM 69.4 °F 69.3 °F 99% 30.27 in 2.0 mi SSE 3.5 mph - 0.13 in Rain Heavy Rain
10:55 AM 70.7 °F 70.5 °F 99% 30.27 in 10.0 mi SE 3.5 mph - 0.18 in   Mostly Cloudy
11:15 AM 73.4 °F 70.9 °F 92% 30.27 in 10.0 mi SSE 6.9 mph - N/A   Mostly Cloudy
11:35 AM 73.6 °F 69.1 °F 86% 30.27 in 10.0 mi SSE 9.2 mph - N/A   Mostly Cloudy
11:55 AM 73.4 °F 68.9 °F 86% 30.28 in 10.0 mi SSE 8.1 mph - N/A   Mostly Cloudy
12:15 PM 74.5 °F 68.5 °F 82% 30.27 in 10.0 mi SSE 9.2 mph - N/A   Mostly Cloudy
12:35 PM 75.6 °F 69.1 °F 80% 30.27 in 10.0 mi South 6.9 mph - N/A   Clear
12:55 PM 75.7 °F 68.4 °F 78% 30.27 in 10.0 mi SSE 9.2 mph - N/A   Scattered Clouds
1:15 PM 77.2 °F 68.4 °F 74% 30.26 in 10.0 mi South 9.2 mph - N/A   Scattered Clouds
1:35 PM 78.8 °F 68.7 °F 71% 30.25 in 10.0 mi SE 9.2 mph - N/A   Scattered Clouds
1:55 PM 78.1 °F 68.7 °F 73% 30.25 in 10.0 mi SSE 5.8 mph - N/A   Scattered Clouds
2:15 PM 73.4 °F 68.9 °F 86% 30.26 in 10.0 mi SE 4.6 mph 16.1 mph N/A   Overcast
2:35 PM 72.3 °F 70.2 °F 93% 30.25 in 4.0 mi SSE 4.6 mph - 0.09 in Rain Light Rain
2:55 PM 74.3 °F 71.8 °F 92% 30.24 in 7.0 mi SE 4.6 mph - 0.09 in Rain Light Rain
3:15 PM 77.0 °F 72.0 °F 84% 30.23 in 10.0 mi SSE 5.8 mph - N/A   Scattered Clouds
3:35 PM 77.0 °F 71.1 °F 82% 30.23 in 10.0 mi SE 9.2 mph - N/A   Scattered Clouds
3:55 PM 77.9 °F 70.2 °F 77% 30.24 in 10.0 mi SE 10.4 mph - N/A   Scattered Clouds
4:15 PM 76.3 °F 68.9 °F 78% 30.23 in 10.0 mi SE 6.9 mph - N/A   Mostly Cloudy
4:35 PM 78.6 °F 68.2 °F 70% 30.23 in 10.0 mi SE 5.8 mph - N/A   Scattered Clouds
4:55 PM 76.1 °F 68.9 °F 78% 30.23 in 10.0 mi SE 5.8 mph - N/A   Mostly Cloudy
5:15 PM 74.5 °F 69.4 °F 84% 30.23 in 5.0 mi SE 4.6 mph - 0.03 in Rain Rain
5:35 PM 73.4 °F 70.9 °F 92% 30.23 in 10.0 mi SSE 5.8 mph - 0.04 in   Overcast
5:55 PM 73.0 °F 70.7 °F 92% 30.23 in 10.0 mi SE 6.9 mph - 0.04 in Rain Light Rain
6:15 PM 72.7 °F 70.7 °F 93% 30.24 in 10.0 mi South 4.6 mph - N/A   Scattered Clouds
6:35 PM 72.5 °F 69.8 °F 91% 30.26 in 10.0 mi SSE 5.8 mph - N/A   Light Drizzle
6:55 PM 72.1 °F 69.4 °F 91% 30.27 in 10.0 mi Calm Calm - N/A   Overcast
7:15 PM 71.8 °F 69.8 °F 93% 30.27 in 10.0 mi Calm Calm - N/A Rain Light Rain
7:35 PM 71.6 °F 69.6 °F 93% 30.27 in 10.0 mi Calm Calm - 0.01 in Rain Light Rain
7:55 PM 71.2 °F 69.8 °F 95% 30.26 in 10.0 mi West 3.5 mph - 0.02 in Rain Light Rain
8:15 PM 70.7 °F 69.3 °F 95% 30.27 in 10.0 mi West 3.5 mph - N/A   Light Drizzle
8:35 PM 70.9 °F 69.6 °F 96% 30.28 in 10.0 mi Calm Calm - N/A   Overcast
8:55 PM 70.5 °F 69.4 °F 96% 30.28 in 7.0 mi WSW 4.6 mph - 0.04 in Rain Heavy Rain
9:15 PM 69.3 °F 68.2 °F 96% 30.27 in 10.0 mi Calm Calm - N/A   Overcast
9:35 PM 69.1 °F 68.4 °F 98% 30.27 in 10.0 mi Calm Calm - N/A   Mostly Cloudy
9:55 PM 68.0 °F 67.6 °F 99% 30.27 in 10.0 mi Calm Calm - N/A   Scattered Clouds
10:15 PM 67.5 °F 67.3 °F 99% 30.27 in 10.0 mi Calm Calm - N/A   Clear
10:35 PM 67.3 °F 67.3 °F 100% 30.28 in 10.0 mi Calm Calm - N/A   Clear
10:55 PM 66.7 °F 66.7 °F 100% 30.28 in 10.0 mi Calm Calm - N/A   Clear
11:15 PM 66.6 °F 66.6 °F 100% 30.28 in 7.0 mi Calm Calm - 0.01 in Rain Rain
11:35 PM 66.6 °F 66.6 °F 100% 30.29 in 10.0 mi Calm Calm - 0.02 in   Scattered Clouds
11:55 PM 66.4 °F 66.4 °F 100% 30.30 in 7.0 mi Calm Calm - 0.02 in Rain Rain